| time (UTC) | temp C | wind direction | speed KPH | gust KPH | rain 1hr cm | rain 24hr cm | rain mn cm | humidity % | barometer mb |
| 20260507002841 | 7 | 326 | 1.6 | 3.2 | 0.00 | 0.89 | 0.00 | 97 | 1013.1 |
| 20260507002338 | 7 | 326 | 0.0 | 4.8 | 0.00 | 0.91 | 0.00 | 97 | 1013.0 |
| 20260506235840 | 7 | 39 | 1.6 | 8.0 | 0.00 | 0.91 | 0.00 | 97 | 1013.1 |
| 20260506235338 | 7 | 19 | 1.6 | 8.0 | 0.00 | 0.91 | 0.00 | 97 | 1013.1 |
| 20260506234337 | 7 | 49 | 3.2 | 8.0 | 0.00 | 0.94 | 0.00 | 97 | 1013.1 |
| 20260506233839 | 7 | 20 | 3.2 | 8.0 | 0.00 | 0.94 | 0.00 | 97 | 1012.8 |
| 20260506233338 | 7 | 20 | 3.2 | 9.7 | 0.00 | 0.94 | 0.00 | 97 | 1012.8 |
| 20260506232338 | 8 | 33 | 4.8 | 9.7 | 0.00 | 0.94 | 0.00 | 97 | 1012.8 |
| 20260506231838 | 8 | 15 | 3.2 | 9.7 | 0.00 | 0.94 | 0.00 | 97 | 1012.8 |
| 20260506223838 | 8 | 339 | 3.2 | 4.8 | 0.00 | 0.97 | 0.00 | 98 | 1012.5 |
| 20260506221838 | 8 | 327 | 3.2 | 8.0 | 0.00 | 1.02 | 0.00 | 98 | 1012.3 |
| 20260506221337 | 8 | 297 | 3.2 | 8.0 | 0.00 | 1.02 | 0.00 | 98 | 1012.3 |
| 20260506220837 | 8 | 23 | 3.2 | 8.0 | 0.00 | 1.02 | 0.00 | 98 | 1012.1 |
| 20260506220338 | 8 | 14 | 3.2 | 8.0 | 0.00 | 1.02 | 0.00 | 98 | 1012.1 |
| 20260506215338 | 8 | 341 | 3.2 | 11.3 | 0.00 | 1.04 | 1.04 | 97 | 1012.0 |
| 20260506214838 | 8 | 39 | 3.2 | 9.7 | 0.00 | 1.04 | 1.04 | 97 | 1012.0 |
| 20260506214337 | 8 | 323 | 3.2 | 9.7 | 0.00 | 1.04 | 1.04 | 97 | 1012.0 |
| 20260506213838 | 8 | 14 | 3.2 | 9.7 | 0.00 | 1.07 | 1.04 | 97 | 1011.9 |
| 20260506213337 | 8 | 359 | 3.2 | 8.0 | 0.00 | 1.07 | 1.04 | 97 | 1011.9 |
| 20260506211838 | 8 | 0 | 3.2 | 8.0 | 0.00 | 1.12 | 1.04 | 97 | 1011.8 |
| 20260506211337 | 8 | 336 | 1.6 | 9.7 | 0.00 | 1.12 | 1.04 | 97 | 1011.8 |
| 20260506210837 | 8 | 336 | 1.6 | 8.0 | 0.00 | 1.14 | 1.04 | 97 | 1011.8 |
| 20260506210337 | 8 | 324 | 1.6 | 8.0 | 0.00 | 1.17 | 1.04 | 97 | 1011.8 |
| 20260506205841 | 8 | 328 | 1.6 | 8.0 | 0.00 | 1.17 | 1.04 | 97 | 1011.8 |
| 20260506205338 | 8 | 316 | 1.6 | 4.8 | 0.00 | 1.19 | 1.04 | 97 | 1011.8 |
| 20260506204337 | 8 | 1 | 3.2 | 3.2 | 0.00 | 1.22 | 1.04 | 97 | 1011.8 |
| 20260506202337 | 8 | 10 | 1.6 | 8.0 | 0.00 | 1.24 | 1.04 | 97 | 1011.7 |
| 20260506201338 | 8 | 350 | 1.6 | 8.0 | 0.00 | 1.27 | 1.04 | 97 | 1011.7 |
| 20260506200837 | 8 | 343 | 1.6 | 3.2 | 0.00 | 1.30 | 1.04 | 97 | 1011.6 |
| 20260506200337 | 8 | 341 | 1.6 | 3.2 | 0.00 | 1.30 | 1.04 | 97 | 1011.6 |
| 20260506195337 | 8 | 331 | 3.2 | 8.0 | 0.00 | 1.32 | 1.04 | 97 | 1011.5 |
| 20260506194337 | 8 | 349 | 3.2 | 8.0 | 0.00 | 1.35 | 1.04 | 97 | 1011.5 |
| 20260506193837 | 8 | 35 | 3.2 | 9.7 | 0.00 | 1.37 | 1.04 | 97 | 1011.4 |
| 20260506193337 | 8 | 337 | 3.2 | 8.0 | 0.00 | 1.37 | 1.04 | 97 | 1011.4 |
| 20260506192840 | 8 | 337 | 1.6 | 8.0 | 0.00 | 1.40 | 1.04 | 97 | 1011.4 |
| 20260506192338 | 8 | 341 | 0.0 | 8.0 | 0.00 | 1.40 | 1.04 | 97 | 1011.2 |
| 20260506191838 | 8 | 322 | 0.0 | 4.8 | 0.00 | 1.42 | 1.04 | 97 | 1011.2 |
| 20260506191338 | 8 | 39 | 0.0 | 3.2 | 0.00 | 1.42 | 1.04 | 97 | 1011.2 |
| 20260506190837 | 8 | 39 | 0.0 | 3.2 | 0.00 | 1.45 | 1.04 | 97 | 1011.1 |
| 20260506190337 | 8 | 39 | 0.0 | 3.2 | 0.00 | 1.45 | 1.04 | 96 | 1011.1 |
| 20260506185839 | 8 | 39 | 0.0 | 1.6 | 0.00 | 1.47 | 1.04 | 96 | 1011.1 |
| 20260506184338 | 8 | 39 | 1.6 | 0.0 | 0.00 | 1.52 | 1.04 | 96 | 1011.1 |
| 20260506183837 | 8 | 39 | 1.6 | 4.8 | 0.00 | 1.52 | 1.04 | 96 | 1011.0 |
| 20260506182841 | 8 | 36 | 0.0 | 4.8 | 0.00 | 1.55 | 1.04 | 96 | 1011.0 |
| 20260506182338 | 8 | 36 | 0.0 | 4.8 | 0.00 | 1.55 | 1.04 | 96 | 1010.9 |
| 20260506181338 | 8 | 352 | 3.2 | 4.8 | 0.00 | 1.57 | 1.04 | 96 | 1010.9 |
| 20260506180838 | 8 | 270 | 1.6 | 8.0 | 0.00 | 1.60 | 1.04 | 96 | 1010.7 |
| 20260506180338 | 8 | 313 | 0.0 | 4.8 | 0.00 | 1.60 | 1.04 | 96 | 1010.7 |
| 20260506175841 | 8 | 313 | 0.0 | 3.2 | 0.00 | 1.63 | 1.04 | 96 | 1010.7 |
| 20260506174837 | 8 | 325 | 0.0 | 1.6 | 0.00 | 1.65 | 1.04 | 96 | 1010.6 |
| 20260506173351 | 8 | 37 | 1.6 | 3.2 | 0.00 | 1.70 | 1.04 | 96 | 1010.3 |
| 20260506170837 | 8 | 336 | 3.2 | 12.9 | 0.00 | 1.75 | 1.04 | 95 | 1010.2 |
| 20260506165840 | 8 | 347 | 3.2 | 9.7 | 0.00 | 1.80 | 1.04 | 95 | 1010.2 |
| 20260506165337 | 8 | 340 | 1.6 | 9.7 | 0.00 | 1.80 | 1.04 | 95 | 1010.1 |
| 20260506164338 | 8 | 36 | 3.2 | 4.8 | 0.00 | 1.83 | 1.04 | 95 | 1010.1 |
| 20260506162841 | 8 | 342 | 1.6 | 3.2 | 0.00 | 1.85 | 1.04 | 96 | 1010.1 |
| 20260506161338 | 8 | 47 | 3.2 | 3.2 | 0.00 | 1.85 | 1.04 | 96 | 1010.1 |
| 20260506160837 | 8 | 41 | 1.6 | 9.7 | 0.00 | 1.85 | 1.04 | 95 | 1010.0 |
| 20260506160337 | 8 | 23 | 1.6 | 8.0 | 0.00 | 1.85 | 1.04 | 96 | 1010.0 |
| 20260506155841 | 8 | 144 | 1.6 | 8.0 | 0.00 | 1.85 | 1.04 | 96 | 1010.0 |
| 20260506155337 | 8 | 30 | 0.0 | 8.0 | 0.00 | 1.85 | 1.04 | 96 | 1010.0 |
| 20260506153837 | 8 | 41 | 4.8 | 4.8 | 0.00 | 1.85 | 1.04 | 96 | 1009.9 |
| 20260506153337 | 8 | 344 | 4.8 | 8.0 | 0.00 | 1.85 | 1.04 | 96 | 1009.9 |
| 20260506152842 | 8 | 346 | 4.8 | 11.3 | 0.00 | 1.85 | 1.04 | 96 | 1009.9 |
| 20260506151843 | 8 | 343 | 4.8 | 16.1 | 0.00 | 1.85 | 1.04 | 96 | 1009.8 |
| 20260506150337 | 8 | 27 | 3.2 | 16.1 | 0.05 | 1.85 | 1.04 | 96 | 1009.8 |
| 20260506145838 | 8 | 5 | 3.2 | 11.3 | 0.05 | 1.85 | 1.04 | 96 | 1009.8 |
| 20260506145338 | 8 | 6 | 3.2 | 8.0 | 0.05 | 1.85 | 1.04 | 96 | 1009.8 |
| 20260506144837 | 8 | 347 | 3.2 | 4.8 | 0.05 | 1.85 | 1.04 | 96 | 1009.8 |
| 20260506143837 | 8 | 354 | 3.2 | 12.9 | 0.05 | 1.85 | 1.04 | 96 | 1009.7 |
| 20260506143337 | 8 | 333 | 3.2 | 8.0 | 0.05 | 1.85 | 1.04 | 96 | 1009.7 |
| 20260506142839 | 8 | 315 | 3.2 | 9.7 | 0.05 | 1.85 | 1.04 | 96 | 1009.7 |
| 20260506140838 | 8 | 32 | 3.2 | 11.3 | 0.00 | 1.80 | 0.99 | 96 | 1009.7 |
| 20260506135337 | 8 | 324 | 3.2 | 16.1 | 0.03 | 1.80 | 0.99 | 96 | 1009.7 |
| 20260506134338 | 8 | 324 | 4.8 | 12.9 | 0.03 | 1.80 | 0.99 | 96 | 1009.7 |
| 20260506132841 | 8 | 348 | 4.8 | 14.5 | 0.05 | 1.80 | 0.99 | 96 | 1009.7 |
| 20260506132339 | 8 | 45 | 4.8 | 12.9 | 0.05 | 1.80 | 0.99 | 96 | 1009.5 |
| 20260506131838 | 8 | 27 | 4.8 | 14.5 | 0.05 | 1.80 | 0.99 | 96 | 1009.5 |
| 20260506131337 | 8 | 342 | 4.8 | 14.5 | 0.05 | 1.80 | 0.99 | 96 | 1009.5 |
| 20260506125337 | 9 | 357 | 8.0 | 14.5 | 0.03 | 1.78 | 0.97 | 96 | 1009.1 |
| 20260506124337 | 10 | 337 | 3.2 | 12.9 | 0.03 | 1.78 | 0.97 | 96 | 1009.1 |
| 20260506123837 | 10 | 4 | 3.2 | 8.0 | 0.03 | 1.78 | 0.97 | 96 | 1009.0 |
| 20260506123338 | 10 | 326 | 3.2 | 16.1 | 0.00 | 1.75 | 0.94 | 97 | 1009.0 |
| 20260506122841 | 9 | 342 | 3.2 | 9.7 | 0.00 | 1.75 | 0.94 | 97 | 1009.0 |
| 20260506121837 | 9 | 347 | 3.2 | 11.3 | 0.00 | 1.75 | 0.94 | 96 | 1008.9 |
| 20260506120338 | 9 | 320 | 4.8 | 12.9 | 0.00 | 1.75 | 0.94 | 96 | 1008.8 |
| 20260506114838 | 9 | 9 | 4.8 | 8.0 | 0.00 | 1.78 | 0.94 | 97 | 1008.7 |
| 20260506113838 | 9 | 12 | 4.8 | 8.0 | 0.00 | 1.78 | 0.94 | 97 | 1008.6 |
| 20260506112840 | 9 | 340 | 6.4 | 11.3 | 0.00 | 1.78 | 0.94 | 97 | 1008.6 |
| 20260506111837 | 9 | 323 | 8.0 | 11.3 | 0.00 | 1.78 | 0.94 | 97 | 1008.6 |
| 20260506110338 | 9 | 358 | 4.8 | 24.1 | 0.03 | 1.78 | 0.94 | 97 | 1008.5 |
| 20260506105840 | 9 | 27 | 4.8 | 11.3 | 0.03 | 1.78 | 0.94 | 97 | 1008.5 |
| 20260506105338 | 9 | 1 | 3.2 | 11.3 | 0.03 | 1.78 | 0.94 | 97 | 1008.5 |
| 20260506103838 | 9 | 313 | 4.8 | 16.1 | 0.03 | 1.78 | 0.94 | 98 | 1008.5 |
| 20260506103338 | 9 | 2 | 4.8 | 19.3 | 0.05 | 1.78 | 0.94 | 98 | 1008.5 |
| 20260506102841 | 9 | 25 | 4.8 | 12.9 | 0.05 | 1.78 | 0.94 | 98 | 1008.5 |
| 20260506101838 | 9 | 347 | 6.4 | 14.5 | 0.08 | 1.78 | 0.94 | 98 | 1008.4 |
| 20260506100838 | 9 | 306 | 4.8 | 11.3 | 0.05 | 1.78 | 0.94 | 98 | 1008.3 |
| 20260506095337 | 9 | 14 | 8.0 | 12.9 | 0.13 | 1.78 | 0.94 | 98 | 1008.2 |
| 20260506094837 | 9 | 332 | 8.0 | 9.7 | 0.13 | 1.78 | 0.94 | 98 | 1008.2 |
| 20260506093837 | 9 | 23 | 4.8 | 12.9 | 0.15 | 1.78 | 0.94 | 98 | 1008.1 |
| 20260506092841 | 9 | 339 | 4.8 | 14.5 | 0.15 | 1.75 | 0.89 | 98 | 1008.1 |
| 20260506092337 | 9 | 2 | 4.8 | 14.5 | 0.18 | 1.75 | 0.89 | 98 | 1008.0 |
| 20260506085839 | 9 | 339 | 4.8 | 12.9 | 0.20 | 1.70 | 0.84 | 99 | 1007.9 |
| 20260506085337 | 9 | 346 | 3.2 | 11.3 | 0.15 | 1.65 | 0.79 | 98 | 1007.8 |
| 20260506084837 | 9 | 20 | 3.2 | 9.7 | 0.18 | 1.65 | 0.79 | 99 | 1007.8 |
| 20260506084338 | 9 | 351 | 3.2 | 9.7 | 0.15 | 1.60 | 0.76 | 99 | 1007.8 |
| 20260506083837 | 9 | 331 | 3.2 | 9.7 | 0.18 | 1.60 | 0.76 | 99 | 1007.7 |
| 20260506082337 | 9 | 244 | 3.2 | 8.0 | 0.18 | 1.55 | 0.71 | 99 | 1007.6 |
| 20260506081337 | 9 | 8 | 3.2 | 8.0 | 0.15 | 1.55 | 0.71 | 99 | 1007.6 |
| 20260506080837 | 9 | 353 | 3.2 | 8.0 | 0.15 | 1.55 | 0.71 | 99 | 1007.6 |
| 20260506080336 | 9 | 334 | 3.2 | 9.7 | 0.15 | 1.50 | 0.66 | 99 | 1007.6 |
| 20260506073338 | 8 | 19 | 3.2 | 4.8 | 0.08 | 1.42 | 0.58 | 99 | 1007.3 |
| 20260506072337 | 8 | 344 | 3.2 | 11.3 | 0.03 | 1.37 | 0.53 | 99 | 1007.3 |
| 20260506071337 | 8 | 315 | 3.2 | 8.0 | 0.03 | 1.37 | 0.53 | 99 | 1007.3 |
| 20260506070838 | 8 | 23 | 3.2 | 9.7 | 0.03 | 1.37 | 0.53 | 99 | 1007.1 |
| 20260506070337 | 8 | 329 | 3.2 | 11.3 | 0.00 | 1.37 | 0.51 | 99 | 1007.1 |
| 20260506062337 | 8 | 354 | 4.8 | 9.7 | 0.00 | 1.37 | 0.51 | 99 | 1006.9 |
| 20260506061338 | 8 | 322 | 3.2 | 12.9 | 0.03 | 1.37 | 0.51 | 99 | 1006.9 |
| 20260506050837 | 8 | 328 | 3.2 | 8.0 | 0.08 | 1.32 | 0.48 | 99 | 1007.0 |
| 20260506050336 | 8 | 313 | 3.2 | 8.0 | 0.08 | 1.32 | 0.48 | 99 | 1007.0 |
| 20260506044837 | 8 | 343 | 3.2 | 9.7 | 0.08 | 1.32 | 0.48 | 99 | 1007.0 |
| 20260506043837 | 8 | 321 | 3.2 | 8.0 | 0.10 | 1.32 | 0.48 | 99 | 1006.9 |
| 20260506043336 | 8 | 340 | 3.2 | 8.0 | 0.10 | 1.32 | 0.48 | 99 | 1006.9 |
| 20260506042838 | 8 | 33 | 3.2 | 8.0 | 0.08 | 1.32 | 0.48 | 99 | 1006.9 |
| 20260506042336 | 8 | 35 | 3.2 | 4.8 | 0.08 | 1.32 | 0.48 | 99 | 1006.9 |
| 20260506040338 | 8 | 322 | 3.2 | 8.0 | 0.05 | 1.24 | 0.41 | 99 | 1007.0 |
| 20260506035840 | 8 | 357 | 3.2 | 8.0 | 0.05 | 1.24 | 0.41 | 99 | 1007.0 |
| 20260506033337 | 9 | 336 | 3.2 | 9.7 | 0.05 | 1.22 | 0.38 | 99 | 1006.9 |
| 20260506030337 | 9 | 2 | 3.2 | 8.0 | 0.05 | 1.19 | 0.36 | 99 | 1007.1 |
| 20260506025839 | 9 | 327 | 3.2 | 8.0 | 0.05 | 1.19 | 0.36 | 98 | 1007.1 |
| 20260506025336 | 9 | 17 | 3.2 | 9.7 | 0.10 | 1.19 | 0.36 | 98 | 1007.3 |
| 20260506024337 | 9 | 20 | 0.0 | 8.0 | 0.08 | 1.17 | 0.33 | 98 | 1007.3 |
| 20260506021837 | 9 | 344 | 1.6 | 8.0 | 0.10 | 1.14 | 0.30 | 98 | 1007.3 |
| 20260506020837 | 9 | 10 | 3.2 | 8.0 | 0.13 | 1.14 | 0.30 | 98 | 1007.4 |
| 20260506020337 | 9 | 350 | 3.2 | 8.0 | 0.13 | 1.14 | 0.30 | 98 | 1007.4 |
| 20260506015839 | 9 | 17 | 3.2 | 8.0 | 0.15 | 1.14 | 0.30 | 98 | 1007.4 |
| 20260506015336 | 9 | 5 | 3.2 | 8.0 | 0.10 | 1.09 | 0.25 | 98 | 1007.4 |
| 20260506014336 | 9 | 43 | 3.2 | 8.0 | 0.10 | 1.09 | 0.25 | 98 | 1007.4 |
| 20260506011836 | 9 | 324 | 1.6 | 8.0 | 0.08 | 1.04 | 0.20 | 98 | 1007.5 |
| 20260506010337 | 9 | 322 | 3.2 | 8.0 | 0.05 | 1.02 | 0.18 | 98 | 1007.6 |
| 20260506005337 | 9 | 330 | 1.6 | 8.0 | 0.03 | 0.99 | 0.15 | 98 | 1007.6 |
| 20260506003337 | 9 | 331 | 3.2 | 3.2 | 0.05 | 0.99 | 0.15 | 98 | 1007.8 |